Weather History for New York, NY

Change the Weather History Date:

Friday, December 28, 2012

  Actual Average Record
Temperature  
Mean Temperature 35 °F 35 °F  
Max Temperature 38 °F 41 °F 65 °F (2008)
Min Temperature 31 °F 29 °F 12 °F (1952)
Degree Days  
Heating Degree Days 30 30  
Month to date heating degree days 588 738  
Since 1 July heating degree days 1360 1513  
Cooling Degree Days 0 0  
Month to date cooling degree days 0 0  
Year to date cooling degree days 1511 1214  
Moisture  
Dew Point 22 °F    
Average Humidity 58    
Maximum Humidity 64    
Minimum Humidity 52    
Precipitation  
Precipitation 0.00 in 0.10 in 1.01 in (1959)
Month to date precipitation 4.04 3.26  
Year to date precipitation 36.45 44.43  
Snow  
Snow 0.00 in 0.20 in 6.70 in (1990)
Month to date snowfall 0.6 4.4  
Since 1 July snowfall 1.7 4.7  
Snow Depth 0.00 in    
Sea Level Pressure  
Sea Level Pressure 30.01 in    
Wind  
Wind Speed 14 mph (NW)    
Max Wind Speed 28 mph    
Max Gust Speed 38 mph    
Visibility 10 miles    
Events      
T = Trace of Precipitation, MM = Missing Value Source: NWS Daily Summary

Daily Weather History Graph

Daily Weather History Graph

Search for Another Location

Airport:

Trip Planner

Search our weather history database for the weather conditions in past years. The results will help you decide how hot, cold, wet, or windy it might be!

Date:

Astronomy

Dec. 28, 2012 Rise Set
Actual Time 7:19 AM EST 4:35 PM EST
Civil Twilight 6:48 AM EST 5:06 PM EST
Nautical Twilight 6:13 AM EST 5:41 PM EST
Astronomical Twilight 5:40 AM EST 6:14 PM EST
Moon 5:10 PM EST (12/28) 7:11 AM EST (12/28)
Length of Visible Light 10h 18m
Length of Day
9h 16m
Full, 100% of the Moon is Illuminated
Dec 28
Full
Jan 4
Last Quarter
Jan 11
New
Jan 18
First Quarter
Jan 26
Full

Hourly Weather History & Observations

Time (EST) Temp. Windchill Dew Point Humidity Pressure Visibility Wind Dir Wind Speed Gust Speed Precip Events Conditions
12:51 AM 32.0 °F 19.5 °F 19.9 °F 61% 29.85 in 10.0 mi NW 21.9 mph 38.0 mph N/A   Scattered Clouds
1:51 AM 32.0 °F 19.8 °F 19.0 °F 59% 29.87 in 10.0 mi NW 20.7 mph 27.6 mph N/A   Scattered Clouds
2:51 AM 32.0 °F 20.1 °F 19.0 °F 59% 29.91 in 10.0 mi WNW 19.6 mph 29.9 mph N/A   Clear
3:51 AM 32.0 °F 21.2 °F 19.9 °F 61% 29.93 in 10.0 mi WNW 16.1 mph 27.6 mph N/A   Scattered Clouds
4:51 AM 32.0 °F 20.8 °F 19.9 °F 61% 29.94 in 10.0 mi NW 17.3 mph 23.0 mph N/A   Scattered Clouds
5:51 AM 32.0 °F 22.5 °F 21.0 °F 64% 29.98 in 10.0 mi NW 12.7 mph - N/A   Mostly Cloudy
6:51 AM 32.0 °F 21.6 °F 21.0 °F 64% 30.00 in 10.0 mi NW 15.0 mph 20.7 mph N/A   Mostly Cloudy
7:51 AM 32.0 °F 21.6 °F 21.9 °F 66% 30.01 in 10.0 mi NW 15.0 mph - N/A   Mostly Cloudy
8:51 AM 33.1 °F 21.2 °F 21.9 °F 64% 30.03 in 10.0 mi NW 20.7 mph 27.6 mph N/A   Scattered Clouds
9:51 AM 34.0 °F 23.8 °F 21.9 °F 61% 30.05 in 10.0 mi NW 16.1 mph 26.5 mph N/A   Mostly Cloudy
10:51 AM 35.1 °F 24.5 °F 21.9 °F 59% 30.04 in 10.0 mi NW 18.4 mph 25.3 mph N/A   Scattered Clouds
11:51 AM 36.0 °F 26.0 °F 23.0 °F 59% 30.02 in 10.0 mi NW 17.3 mph - N/A   Scattered Clouds
12:51 PM 37.9 °F 30.5 °F 24.1 °F 57% 30.01 in 10.0 mi NW 11.5 mph - N/A   Scattered Clouds
1:51 PM 37.0 °F 28.1 °F 21.9 °F 54% 30.01 in 10.0 mi WNW 15.0 mph - N/A   Scattered Clouds
2:51 PM 37.9 °F 30.5 °F 23.0 °F 55% 30.03 in 10.0 mi WNW 11.5 mph - N/A   Scattered Clouds
3:51 PM 37.0 °F 28.5 °F 23.0 °F 57% 30.04 in 10.0 mi NW 13.8 mph - N/A   Scattered Clouds
4:51 PM 36.0 °F 27.1 °F 23.0 °F 59% 30.04 in 10.0 mi NW 13.8 mph - N/A   Scattered Clouds
5:51 PM 35.1 °F 25.9 °F 23.0 °F 61% 30.06 in 10.0 mi NW 13.8 mph - N/A   Scattered Clouds
6:51 PM 33.8 °F 26.4 °F 23.0 °F 65% 30.06 in 10.0 mi NNW 9.2 mph - N/A   Mostly Cloudy
7:51 PM 33.8 °F 24.8 °F 23.0 °F 65% 30.06 in 10.0 mi NNW 12.7 mph - N/A   Scattered Clouds
8:51 PM 33.1 °F 26.1 °F 23.0 °F 66% 30.08 in 10.0 mi NNW 8.1 mph - N/A   Scattered Clouds
9:51 PM 33.1 °F 25.5 °F 23.0 °F 66% 30.07 in 10.0 mi North 9.2 mph - N/A   Scattered Clouds
10:51 PM 33.1 °F 27.7 °F 23.0 °F 66% 30.07 in 10.0 mi North 5.8 mph - N/A   Partly Cloudy
11:51 PM 32.0 °F - 23.0 °F 69% 30.06 in 10.0 mi Calm Calm - N/A   Scattered Clouds